#timestamp,LO_Frequency,Hit,StdDev 
1642057215.8,286047003.4,N
1642057235.6,286047004.0,N
1642057255.5,286047003.1,N
1642057275.3,286047005.6,N
1642057295.1,286047001.3,N
1642057315.9,286046998.2,N
1642057335.7,286046998.8,N
1642057355.6,286046998.6,N
1642057375.4,286046998.7,N
1642057395.2,286046998.3,N
1642057415.1,286047000.7,N
1642057416.0,286047000.7,N
1642057435.8,286047000.7,N
1642057455.7,286047000.8,N
1642057475.5,286046998.3,N
1642057495.3,286046996.7,N
1642057515.2,286047000.8,N
1642057535.0,286047000.3,N
1642057535.9,286047000.3,N
1642057555.7,286047002.2,N
1642057575.6,286047003.9,N
1642057595.4,286046999.9,N
1642057615.3,286047002.5,N
1642057635.1,286046999.8,N
1642057636.0,286046999.8,N
1642057655.8,286047004.4,N
1642057675.7,286047005.1,N
1642057695.5,286047004.9,N
1642057715.4,286047005.2,N
1642057735.2,286047006.9,N
1642057755.0,286047008.7,Y
1642057755.9,286047008.7,P
1642057775.8,286047009.8,N
1642057795.6,286047008.1,N
1642057815.4,286047007.8,N
1642057835.3,286047008.4,N
1642057855.1,286047007.0,N
1642057875.9,286047006.2,N
1642057895.7,286047006.4,N
1642057915.5,286047005.0,N
1642057935.4,286047004.8,N
1642057955.2,286047007.2,Y
1642057975.1,286046998.8,P
1642057976.0,286046998.8,N
1642057995.8,286047001.4,N
1642058015.6,286047005.2,N
1642058035.5,286047009.0,N
1642058055.3,286047007.4,N
1642058075.1,286047007.3,N
1642058095.9,286047004.8,N
1642058115.7,286047003.9,N
1642058135.6,286047001.7,N
1642058155.4,286047000.7,N
1642058175.2,286047002.2,N
1642058195.1,286047002.6,N
1642058196.0,286047002.6,N
1642058215.8,286047001.1,N
1642058235.7,286047000.7,N
1642058255.5,286047001.1,N
1642058275.3,286046996.9,N
1642058295.2,286046997.7,N
1642058315.0,286046996.9,N
1642058315.9,286046996.9,N
1642058335.8,286047002.5,N
1642058355.6,286047003.1,N
1642058375.4,286047002.0,N
1642058395.3,286046999.9,N
1642058415.1,286047000.2,N
1642058435.8,286046998.4,N
1642058455.7,286046996.7,N
1642058475.5,286046997.5,N
1642058495.4,286046996.6,N
1642058515.2,286046996.7,N
1642058535.0,286046996.5,N
1642058535.9,286046996.5,N
1642058555.8,286046998.8,N
1642058575.6,286046997.3,N
1642058595.5,286046996.7,N
1642058615.3,286046997.1,N
1642058635.1,286046996.6,N
1642058655.9,286046999.6,N
1642058675.7,286046999.5,N
1642058695.5,286046997.6,N
1642058715.4,286046996.9,N
1642058735.2,286046997.4,N
1642058755.1,286046997.9,N
1642058756.0,286046997.9,N
1642058775.8,286046997.4,N
1642058795.6,286046996.9,N
1642058815.5,286046996.7,N
1642058835.3,286046995.7,N
1642058855.2,286046996.4,N
1642058875.9,286046994.1,Y
1642058895.7,286046996.0,P
1642058915.6,286046995.6,P
1642058935.4,286046993.8,P
1642058955.2,286046996.0,N
1642058975.1,286046994.5,Y
1642058976.0,286046994.5,P
1642058995.8,286046996.6,P
1642059015.7,286046998.9,N
1642059035.5,286046998.6,N
1642059055.3,286047000.7,N
1642059075.2,286047000.0,N
1642059095.0,286047000.6,N
1642059095.9,286047000.6,N
1642059115.8,286047001.1,N
1642059135.6,286046999.2,N
1642059155.4,286046999.6,N
1642059175.3,286046997.1,N
1642059195.1,286046996.9,N
1642059215.9,286046999.2,N
1642059235.7,286046999.4,N
1642059255.5,286046999.1,N
1642059275.4,286046998.5,N
1642059295.2,286046999.3,N
1642059315.0,286046999.6,N
1642059315.9,286046999.6,N
1642059335.8,286046997.5,N
1642059355.6,286046995.7,N
1642059375.5,286046993.8,Y
1642059395.3,286046997.8,P
1642059415.1,286046996.6,P
1642059435.9,286046996.6,P
1642059455.7,286046999.1,N
1642059475.6,286046999.4,N
1642059495.4,286046997.3,N
1642059515.2,286046996.9,N
1642059535.1,286046998.7,N
1642059536.0,286046998.7,N
1642059555.8,286046998.5,N
1642059575.7,286047000.4,N
1642059595.5,286047000.4,N
1642059615.3,286047000.1,N
1642059635.2,286047000.9,N
1642059655.0,286047001.0,N
1642059655.9,286047001.0,N
1642059675.7,286047000.5,N
1642059695.6,286047000.6,N
1642059715.4,286047000.8,N
1642059735.3,286046999.2,N
1642059755.1,286046997.3,N
1642059775.8,286046999.1,N
1642059795.7,286046999.1,N
1642059815.5,286046996.8,N
1642059835.4,286046998.3,N
1642059855.2,286046998.9,N
1642059875.0,286047000.8,N
1642059875.9,286047000.8,N
1642059895.8,286046999.1,N
1642059915.6,286046998.7,N
1642059935.4,286046998.8,N
1642059955.3,286046996.9,N
1642059975.1,286046998.7,N
1642059995.9,286047001.1,N
1642060015.7,286046999.3,N
1642060035.5,286046997.0,N
1642060055.4,286046995.9,Y
1642060075.2,286046999.4,P
1642060095.1,286046998.5,P
1642060096.0,286046998.5,P
1642060115.8,286046998.9,N
1642060135.6,286046998.5,Y
1642060155.5,286046998.6,P
1642060175.3,286046996.8,P
1642060195.2,286047000.9,N
1642060215.9,286046998.6,N
1642060235.7,286046998.4,N
1642060255.6,286046997.2,N
1642060275.4,286046996.5,N
1642060295.3,286047001.0,N
1642060315.1,286046999.9,N
1642060316.0,286046999.9,N
1642060335.8,286047002.7,N
1642060355.7,286047001.7,N
1642060375.5,286047004.4,N
1642060395.3,286047000.1,N
1642060415.2,286047000.3,N
1642060435.0,286047000.4,N
1642060435.9,286047000.4,N
1642060455.8,286046998.1,N
1642060475.6,286046997.2,N
1642060495.4,286046997.1,N
1642060515.3,286046999.5,N
1642060535.1,286047000.5,N
1642060555.9,286047000.8,N
1642060575.7,286046999.9,N
1642060595.5,286047004.2,N
1642060615.4,286047005.5,N
1642060635.2,286047005.8,N
1642060655.0,286047003.5,N
1642060656.0,286047003.5,N
1642060675.8,286047004.0,N
1642060695.6,286047001.8,N
1642060715.5,286047003.3,N
1642060735.3,286047003.8,N
1642060755.1,286047003.0,N
1642060775.9,286047004.2,N
1642060795.7,286047004.4,N
